User: anonymous   Login
Location: Mentone
(34.5413°N, 85.5351°W)
Time: 02:07:41
(UTC-05:00)
Language:

Centaur AC-72 - Orbit

View from above orbital plane
View from above orbital plane
View from above satellite
View from above satellite

Ground track
Ground track

The orbit data is extracted from the following two-line orbital elements,

1 21907U 92013B   15116.39227090 -.00000199  00000-0  00000+0 0  9999
2 21907 018.9442 160.1511 6954557 055.4582 008.1872 02.25607093190600
Epoch (UTC): 26 April 2015 09:24:52
Eccentricity: 0.6954557
inclination: 18.9442°
perigee height: 1100 km
apogee height: 35256 km
right ascension of ascending node: 160.1511°
argument of perigee: 55.4582°
revolutions per day: 2.25607093
mean anomaly at epoch: 8.1872°
orbit number at epoch: 19060

The dashed part of the orbit path shows where the satellite is in the earth's shadow,  

DLR